KI4TXI Weather Reports


Display with metric or nautical units.
time (UTC)temp
F
wind
direction
speed
MPH
gust
MPH
rain 1hr
in
rain 24hr
in
rain mn
in
humidity
%
barometer
mb
20170818234444 88 88 0.0 0.0 0.00 0.00 0.00 74 1021.4
20170818233944 88 88 0.0 0.0 0.00 0.00 0.00 72 1021.4
20170818233444 88 88 0.0 0.0 0.00 0.00 0.00 72 1021.4
20170818232944 89 87 0.0 0.0 0.00 0.00 0.00 71 1021.4
20170818232444 89 88 0.0 0.0 0.00 0.00 0.00 71 1021.6
20170818231943 89 88 0.0 0.0 0.00 0.00 0.00 70 1021.6
20170818231444 90 88 0.0 0.0 0.00 0.00 0.00 68 1021.5
20170818230944 90 87 0.0 0.0 0.00 0.00 0.00 67 1021.5
20170818230444 90 88 0.0 0.0 0.00 0.00 0.00 65 1021.5
20170818225945 90 88 0.0 0.0 0.00 0.00 0.00 63 1021.5
20170818225445 91 88 0.0 0.0 0.00 0.00 0.00 65 1021.4
20170818224946 91 87 0.0 0.0 0.00 0.00 0.00 65 1021.4
20170818224446 91 88 0.0 0.0 0.00 0.00 0.00 64 1021.4
20170818223947 92 88 0.0 0.0 0.00 0.00 0.00 64 1021.4
20170818223444 92 87 0.0 0.0 0.00 0.00 0.00 63 1021.4
20170818222943 92 88 0.0 0.0 0.00 0.00 0.00 61 1021.3
20170818222443 92 88 0.0 0.0 0.00 0.00 0.00 63 1021.3
20170818221943 92 88 0.0 0.0 0.00 0.00 0.00 63 1021.3
20170818221445 92 87 0.0 0.0 0.00 0.00 0.00 62 1021.3
20170818220943 92 87 0.0 0.0 0.00 0.00 0.00 63 1021.3
20170818220442 92 88 0.0 0.0 0.00 0.00 0.00 62 1021.2
20170818215941 92 88 0.0 0.0 0.00 0.00 0.00 61 1021.2
20170818215443 92 87 0.0 0.0 0.00 0.00 0.00 60 1021.2
20170818214942 92 134 0.0 1.0 0.00 0.00 0.00 61 1021.2
20170818214442 92 117 0.0 2.0 0.00 0.00 0.00 58 1021.2
20170818213940 92 88 0.0 2.0 0.00 0.00 0.00 59 1021.1
20170818213440 92 88 0.0 2.0 0.00 0.00 0.00 60 1021.1
20170818213000 92 87 0.0 2.0 0.00 0.00 0.00 58 1021.2
20170818212456 92 51 0.0 2.0 0.00 0.00 0.00 60 1021.2
20170818211956 93 44 0.0 0.0 0.00 0.00 0.00 61 1021.2
20170818211457 93 44 0.0 2.0 0.00 0.00 0.00 60 1021.2
20170818210956 93 101 0.0 2.0 0.00 0.00 0.00 60 1021.2
20170818210457 93 68 0.0 2.0 0.00 0.00 0.00 61 1021.2
20170818205957 94 123 0.0 2.0 0.00 0.00 0.00 58 1021.3
20170818205457 95 45 0.0 0.0 0.00 0.00 0.00 58 1021.4
20170818204941 96 46 0.0 0.0 0.00 0.00 0.00 57 1021.4
20170818204442 96 45 0.0 1.0 0.00 0.00 0.00 55 1021.4
20170818203942 96 45 0.0 1.0 0.00 0.00 0.00 54 1021.5
20170818203443 97 47 0.0 1.0 0.00 0.00 0.00 57 1021.5
20170818202941 97 84 0.0 1.0 0.00 0.00 0.00 59 1021.5
20170818202442 96 84 0.0 1.0 0.00 0.00 0.00 56 1021.5
20170818201941 96 85 0.0 1.0 0.00 0.00 0.00 58 1021.6
20170818201441 97 94 0.0 6.0 0.00 0.00 0.00 57 1021.6
20170818200942 97 205 3.0 6.0 0.00 0.00 0.00 58 1021.7
20170818200442 97 75 1.0 2.0 0.00 0.00 0.00 58 1021.7
20170818195942 97 300 0.0 3.0 0.00 0.00 0.00 59 1021.7
20170818195443 96 80 0.0 3.0 0.00 0.00 0.00 58 1021.6
20170818194944 96 93 0.0 5.0 0.00 0.00 0.00 59 1021.7
20170818194448 95 65 0.0 5.0 0.00 0.00 0.00 59 1021.6
20170818193949 95 110 0.0 2.0 0.00 0.00 0.00 62 1021.6
20170818193448 95 105 1.0 5.0 0.00 0.00 0.00 59 1021.6
20170818192947 96 138 3.0 5.0 0.00 0.00 0.00 59 1021.6
20170818192448 96 91 0.0 2.0 0.00 0.00 0.00 60 1021.7
20170818191948 96 82 0.0 2.0 0.00 0.00 0.00 61 1021.7
20170818191448 96 355 0.0 1.0 0.00 0.00 0.00 64 1021.8
20170818190948 96 61 0.0 1.0 0.00 0.00 0.00 61 1021.9
20170818190448 96 66 0.0 1.0 0.00 0.00 0.00 65 1021.9
20170818185950 96 67 0.0 1.0 0.00 0.00 0.00 62 1021.9
20170818185450 96 64 0.0 1.0 0.00 0.00 0.00 62 1022.0
20170818184950 96 64 0.0 1.0 0.00 0.00 0.00 63 1022.0
20170818184450 95 70 0.0 1.0 0.00 0.00 0.00 64 1022.1
20170818183954 94 70 0.0 1.0 0.00 0.00 0.00 65 1022.1
20170818183450 95 65 0.0 1.0 0.00 0.00 0.00 64 1022.1
20170818182950 95 71 1.0 3.0 0.00 0.00 0.00 64 1022.2
20170818182451 96 58 0.0 3.0 0.00 0.00 0.00 61 1022.3
20170818181950 96 69 0.0 3.0 0.00 0.00 0.00 60 1022.3
20170818181449 97 76 0.0 2.0 0.00 0.00 0.00 59 1022.3
20170818180950 97 76 0.0 2.0 0.00 0.00 0.00 60 1022.4
20170818180451 97 74 0.0 2.0 0.00 0.00 0.00 61 1022.4
20170818175951 97 94 0.0 2.0 0.00 0.00 0.00 60 1022.4
20170818175450 96 93 0.0 2.0 0.00 0.00 0.00 60 1022.4
20170818174949 97 100 0.0 2.0 0.00 0.00 0.00 60 1022.5
20170818174449 97 102 0.0 2.0 0.00 0.00 0.00 62 1022.6
20170818173948 96 102 0.0 2.0 0.00 0.00 0.00 61 1022.5
20170818173452 96 78 1.0 5.0 0.00 0.00 0.00 62 1022.5
20170818172952 95 65 0.0 5.0 0.00 0.00 0.00 60 1022.6
20170818172453 95 69 0.0 2.0 0.00 0.00 0.00 63 1022.6
20170818171953 95 82 0.0 3.0 0.00 0.00 0.00 62 1022.7
20170818171453 95 105 0.0 3.0 0.00 0.00 0.00 62 1022.7
20170818170952 95 78 0.0 1.0 0.00 0.00 0.00 63 1022.8
20170818170453 94 78 0.0 0.0 0.00 0.00 0.00 66 1022.8
20170818165954 94 78 0.0 1.0 0.00 0.00 0.00 65 1022.8
20170818165453 94 118 0.0 2.0 0.00 0.00 0.00 64 1022.8
20170818164951 94 82 0.0 5.0 0.00 0.00 0.00 65 1022.9
20170818164452 94 71 0.0 5.0 0.00 0.00 0.00 66 1023.0
20170818163953 93 80 0.0 1.0 0.00 0.00 0.00 68 1023.0
20170818163452 93 76 0.0 1.0 0.00 0.00 0.00 70 1023.0
20170818162957 92 76 0.0 1.0 0.00 0.00 0.00 70 1023.0
20170818162457 92 86 0.0 1.0 0.00 0.00 0.00 70 1023.0
20170818161957 92 86 0.0 2.0 0.00 0.00 0.00 72 1023.1
20170818161458 91 86 0.0 2.0 0.00 0.00 0.00 71 1023.2
20170818160957 91 73 0.0 2.0 0.00 0.00 0.00 74 1023.2
20170818160438 91 71 0.0 2.0 0.00 0.00 0.00 72 1023.2
20170818155958 91 136 0.0 1.0 0.00 0.00 0.00 73 1023.2
20170818155458 91 111 0.0 2.0 0.00 0.00 0.00 74 1023.2
20170818154957 90 112 0.0 2.0 0.00 0.00 0.00 76 1023.2
20170818154457 90 77 0.0 1.0 0.00 0.00 0.00 77 1023.3
20170818153957 89 88 0.0 1.0 0.00 0.00 0.00 78 1023.3
20170818153456 89 49 0.0 0.0 0.00 0.00 0.00 79 1023.3
20170818152941 89 49 0.0 1.0 0.00 0.00 0.00 79 1023.3
20170818152439 89 49 0.0 1.0 0.00 0.00 0.00 78 1023.3
20170818151940 88 53 0.0 1.0 0.00 0.00 0.00 80 1023.3
20170818151440 88 53 0.0 0.0 0.00 0.00 0.00 81 1023.3
20170818150941 88 53 0.0 2.0 0.00 0.00 0.00 80 1023.2
20170818150440 87 105 0.0 2.0 0.00 0.00 0.00 80 1023.3
20170818145941 87 328 0.0 2.0 0.00 0.00 0.00 82 1023.3
20170818145442 87 82 0.0 1.0 0.00 0.00 0.00 82 1023.3
20170818144943 86 82 0.0 1.0 0.00 0.00 0.00 84 1023.3
20170818144441 86 46 0.0 1.0 0.00 0.00 0.00 84 1023.3
20170818143941 86 46 0.0 1.0 0.00 0.00 0.00 84 1023.2
20170818143440 85 303 0.0 2.0 0.00 0.00 0.00 86 1023.2
20170818142940 85 304 0.0 2.0 0.00 0.00 0.00 85 1023.3
20170818142445 85 78 0.0 1.0 0.00 0.00 0.00 85 1023.3
20170818141946 84 78 0.0 0.0 0.00 0.00 0.00 88 1023.4
20170818141445 84 78 0.0 0.0 0.00 0.00 0.00 87 1023.4
20170818140945 84 65 0.0 0.0 0.00 0.00 0.00 87 1023.3
20170818140445 84 66 0.0 0.0 0.00 0.00 0.00 89 1023.3
20170818135945 83 63 0.0 0.0 0.00 0.00 0.00 89 1023.3
20170818135444 83 63 0.0 0.0 0.00 0.00 0.00 90 1023.3
20170818134943 83 63 0.0 0.0 0.00 0.00 0.00 92 1023.3
20170818134443 82 28 0.0 0.0 0.00 0.00 0.00 93 1023.4
20170818133943 82 28 0.0 0.0 0.00 0.00 0.00 93 1023.3
20170818133443 81 28 0.0 0.0 0.00 0.00 0.00 94 1023.3
20170818132944 81 28 0.0 0.0 0.00 0.00 0.00 95 1023.3
20170818132443 81 300 0.0 0.0 0.00 0.00 0.00 95 1023.4
20170818131947 80 298 0.0 0.0 0.00 0.00 0.00 96 1023.3
20170818131447 80 290 0.0 0.0 0.00 0.00 0.00 96 1023.4
20170818130947 80 290 0.0 0.0 0.00 0.00 0.00 97 1023.5
20170818130448 79 290 0.0 0.0 0.00 0.00 0.00 97 1023.6
20170818125947 79 290 0.0 0.0 0.00 0.00 0.00 97 1023.6
20170818125448 79 290 0.0 0.0 0.00 0.00 0.00 97 1023.5
20170818124948 79 96 0.0 0.0 0.00 0.00 0.00 98 1023.6
20170818124448 78 96 0.0 0.0 0.00 0.00 0.00 98 1023.5
20170818123949 78 97 0.0 0.0 0.00 0.00 0.00 97 1023.5
20170818123449 78 97 0.0 0.0 0.00 0.00 0.00 98 1023.5
20170818122947 78 96 0.0 0.0 0.00 0.00 0.00 97 1023.5
20170818122448 77 96 0.0 0.0 0.00 0.00 0.00 97 1023.5
20170818121948 77 97 0.0 0.0 0.00 0.00 0.00 98 1023.5
20170818121452 77 97 0.0 0.0 0.00 0.00 0.00 97 1023.4
20170818120954 77 97 0.0 0.0 0.00 0.00 0.00 97 1023.4
20170818120453 77 97 0.0 0.0 0.00 0.00 0.00 97 1023.4
20170818115952 76 97 0.0 0.0 0.00 0.00 0.00 97 1023.4
20170818115453 76 97 0.0 0.0 0.00 0.00 0.00 97 1023.4
20170818114954 76 97 0.0 0.0 0.00 0.00 0.00 97 1023.4
20170818114452 76 96 0.0 0.0 0.00 0.00 0.00 97 1023.3
20170818113953 76 96 0.0 0.0 0.00 0.00 0.00 97 1023.3
20170818113452 76 97 0.0 0.0 0.00 0.00 0.00 97 1023.1
20170818112952 76 97 0.0 0.0 0.00 0.00 0.00 97 1023.0
20170818112452 75 96 0.0 0.0 0.00 0.00 0.00 97 1023.0
20170818111952 75 97 0.0 0.0 0.00 0.00 0.00 97 1023.0
20170818111452 75 97 0.0 0.0 0.00 0.00 0.00 97 1023.0
20170818110955 74 97 0.0 0.0 0.00 0.00 0.00 98 1022.9
20170818110455 74 97 0.0 0.0 0.00 0.00 0.00 97 1022.8
20170818105956 74 96 0.0 0.0 0.00 0.00 0.00 97 1022.9
20170818105456 74 96 0.0 0.0 0.00 0.00 0.00 97 1022.8
20170818104957 74 97 0.0 0.0 0.00 0.00 0.00 97 1022.8
20170818104457 74 96 0.0 0.0 0.00 0.00 0.00 97 1022.8
20170818103957 74 96 0.0 0.0 0.00 0.00 0.00 97 1022.8
20170818103456 74 97 0.0 0.0 0.00 0.00 0.00 97 1022.8
20170818102956 74 97 0.0 0.0 0.00 0.00 0.00 97 1022.8
20170818102455 74 97 0.0 0.0 0.00 0.00 0.00 97 1022.7
20170818101955 74 96 0.0 0.0 0.00 0.00 0.00 97 1022.7
20170818101447 74 96 0.0 0.0 0.00 0.00 0.00 97 1022.7
20170818100946 74 96 0.0 0.0 0.00 0.00 0.00 97 1022.6
20170818100449 74 97 0.0 0.0 0.00 0.00 0.00 97 1022.7
20170818095949 74 96 0.0 0.0 0.00 0.00 0.00 97 1022.7
20170818095449 74 96 0.0 0.0 0.00 0.00 0.00 97 1022.7
20170818094949 73 97 0.0 0.0 0.00 0.00 0.00 97 1022.6
20170818094450 74 97 0.0 0.0 0.00 0.00 0.00 97 1022.6
20170818093950 74 97 0.0 0.0 0.00 0.00 0.00 97 1022.7
20170818093451 74 97 0.0 0.0 0.00 0.00 0.00 97 1022.6
20170818092950 74 97 0.0 0.0 0.00 0.00 0.00 97 1022.4
20170818092451 74 97 0.0 0.0 0.00 0.00 0.00 97 1022.3
20170818091455 73 97 0.0 0.0 0.00 0.00 0.00 97 1022.5
20170818090952 73 97 0.0 0.0 0.00 0.00 0.00 97 1022.5
20170818090452 73 97 0.0 0.0 0.00 0.00 0.00 97 1022.4
20170818085956 74 97 0.0 0.0 0.00 0.00 0.00 97 1022.3
20170818085456 74 97 0.0 0.0 0.00 0.00 0.00 97 1022.4
20170818084956 74 96 0.0 0.0 0.00 0.00 0.00 97 1022.3
20170818084456 74 97 0.0 0.0 0.00 0.00 0.00 97 1022.3
20170818083956 74 97 0.0 0.0 0.00 0.00 0.00 97 1022.3
20170818083456 74 96 0.0 0.0 0.00 0.00 0.00 97 1022.5
20170818082956 74 96 0.0 0.0 0.00 0.00 0.00 97 1022.4
20170818082456 74 97 0.0 0.0 0.00 0.00 0.00 97 1022.4
20170818081956 74 97 0.0 0.0 0.00 0.00 0.00 97 1022.4
20170818081457 74 97 0.0 0.0 0.00 0.00 0.00 97 1022.4
20170818080957 74 96 0.0 0.0 0.00 0.00 0.00 97 1022.4
20170818080458 74 96 0.0 0.0 0.00 0.00 0.00 97 1022.4
20170818075941 74 97 0.0 0.0 0.00 0.00 0.00 97 1022.5
20170818075441 74 97 0.0 0.0 0.00 0.00 0.00 97 1022.5
20170818074941 74 97 0.0 0.0 0.00 0.00 0.00 97 1022.5
20170818074440 74 96 0.0 0.0 0.00 0.00 0.00 97 1022.5
20170818073940 74 97 0.0 0.0 0.00 0.00 0.00 97 1022.5
20170818073440 74 97 0.0 0.0 0.00 0.00 0.00 97 1022.5
20170818072940 75 96 0.0 0.0 0.00 0.00 0.00 97 1022.5
20170818072440 75 97 0.0 0.0 0.00 0.00 0.00 97 1022.5
20170818072001 75 96 0.0 0.0 0.00 0.00 0.00 97 1022.5
20170818071454 75 97 0.0 0.0 0.00 0.00 0.00 97 1022.7
20170818070958 75 96 0.0 0.0 0.00 0.00 0.00 97 1022.7
20170818070455 75 97 0.0 0.0 0.00 0.00 0.00 97 1022.6
20170818065955 75 96 0.0 0.0 0.00 0.00 0.00 97 1022.8
20170818065439 75 97 0.0 0.0 0.00 0.00 0.00 97 1022.8
20170818064938 75 97 0.0 0.0 0.00 0.00 0.00 97 1022.9
20170818064438 75 97 0.0 0.0 0.00 0.00 0.00 96 1022.9
20170818063939 75 97 0.0 0.0 0.00 0.00 0.00 97 1022.9
20170818063438 75 96 0.0 0.0 0.00 0.00 0.00 97 1022.9
20170818062958 75 97 0.0 0.0 0.00 0.00 0.00 97 1022.9
20170818062457 75 97 0.0 0.0 0.00 0.00 0.00 96 1023.0
20170818062038 75 96 0.0 0.0 0.00 0.00 0.00 97 1023.2
20170818061439 75 96 0.0 0.0 0.00 0.00 0.00 96 1023.3
20170818060938 75 96 0.0 0.0 0.00 0.00 0.00 96 1023.3
20170818060458 75 97 0.0 0.0 0.00 0.00 0.00 96 1023.3
20170818055938 75 96 0.0 0.0 0.00 0.00 0.00 96 1023.2
20170818055438 75 96 0.0 0.0 0.00 0.00 0.00 96 1023.2
20170818054938 76 97 0.0 0.0 0.00 0.00 0.00 96 1023.0
20170818054438 76 97 0.0 0.0 0.00 0.00 0.00 96 1023.2
20170818053938 76 96 0.0 0.0 0.00 0.00 0.00 96 1023.1
20170818053442 76 96 0.0 0.0 0.00 0.00 0.00 96 1023.3
20170818052942 76 96 0.0 0.0 0.00 0.00 0.00 96 1023.3
20170818052441 76 97 0.0 0.0 0.00 0.00 0.00 96 1023.3
20170818051940 76 97 0.0 0.0 0.00 0.00 0.00 96 1023.3
20170818051441 76 96 0.0 0.0 0.00 0.00 0.00 96 1023.4
20170818050942 76 97 0.0 0.0 0.00 0.00 0.00 96 1023.4
20170818050441 76 97 0.0 0.0 0.00 0.00 0.00 96 1023.4
20170818045943 76 97 0.0 0.0 0.00 0.00 0.00 96 1023.3
20170818045442 76 96 0.0 0.0 0.00 0.00 0.00 96 1023.3
20170818044942 77 97 0.0 0.0 0.00 0.00 0.00 96 1023.4
20170818044442 77 97 0.0 0.0 0.00 0.00 0.00 96 1023.3
20170818043941 77 96 0.0 0.0 0.00 0.00 0.00 95 1023.3
20170818043442 77 97 0.0 0.0 0.00 0.00 0.00 95 1023.3
20170818042943 77 97 0.0 0.0 0.00 0.00 0.00 95 1023.3
20170818042443 77 97 0.0 0.0 0.00 0.00 0.00 96 1023.4
20170818041943 77 97 0.0 0.0 0.00 0.00 0.00 96 1023.5
20170818041443 77 96 0.0 0.0 0.00 0.00 0.00 95 1023.5
20170818040943 77 97 0.0 0.0 0.00 0.00 0.00 95 1023.5
20170818040443 77 97 0.0 0.0 0.00 0.00 0.00 95 1023.4
20170818035943 78 96 0.0 0.0 0.00 0.00 0.00 95 1023.2
20170818035443 78 97 0.0 0.0 0.00 0.00 0.00 94 1023.3
20170818034942 78 97 0.0 0.0 0.00 0.00 0.00 94 1023.3
20170818034442 78 97 0.0 0.0 0.00 0.00 0.00 94 1023.2
20170818033941 78 96 0.0 0.0 0.00 0.00 0.00 94 1023.3
20170818033440 78 97 0.0 0.0 0.00 0.00 0.00 93 1023.3
20170818032941 78 97 0.0 0.0 0.00 0.00 0.00 93 1023.4
20170818032445 78 97 0.0 0.0 0.00 0.00 0.00 93 1023.5
20170818031944 79 96 0.0 0.0 0.00 0.00 0.00 93 1023.5
20170818031443 79 96 0.0 0.0 0.00 0.00 0.00 93 1023.4
20170818030943 79 97 0.0 0.0 0.00 0.00 0.00 93 1023.4
20170818030443 79 97 0.0 0.0 0.00 0.00 0.00 93 1023.4
20170818025943 79 96 0.0 0.0 0.00 0.00 0.00 93 1023.5
20170818025442 79 97 0.0 0.0 0.00 0.00 0.00 93 1023.5
20170818024943 80 97 0.0 0.0 0.00 0.00 0.00 93 1023.5
20170818024443 80 96 0.0 0.0 0.00 0.00 0.00 93 1023.6
20170818023943 80 96 0.0 0.0 0.00 0.00 0.00 92 1023.6
20170818023443 80 97 0.0 0.0 0.00 0.00 0.00 92 1023.7
20170818022942 80 97 0.0 0.0 0.00 0.00 0.00 92 1023.8
20170818022442 80 96 0.0 0.0 0.00 0.00 0.00 92 1023.9
20170818021946 81 96 0.0 0.0 0.00 0.00 0.00 91 1023.9
20170818021447 81 97 0.0 0.0 0.00 0.00 0.00 91 1023.9
20170818020947 81 97 0.0 0.0 0.00 0.00 0.00 91 1023.9
20170818020447 81 97 0.0 0.0 0.00 0.00 0.00 91 1023.6
20170818015947 81 96 0.0 0.0 0.00 0.00 0.00 91 1023.6
20170818015448 81 96 0.0 0.0 0.00 0.00 0.00 90 1023.5
20170818014948 82 97 0.0 0.0 0.00 0.00 0.00 90 1023.4
20170818014449 82 97 0.0 0.0 0.00 0.00 0.00 90 1023.4
20170818013948 82 96 0.0 0.0 0.00 0.00 0.00 90 1023.3
20170818013447 82 96 0.0 0.0 0.00 0.00 0.00 90 1023.4
20170818012946 82 97 0.0 0.0 0.00 0.00 0.00 90 1023.1
20170818012445 83 96 0.0 0.0 0.00 0.00 0.00 90 1023.0
20170818011945 83 97 0.0 0.0 0.00 0.00 0.00 90 1023.0
20170818011449 83 97 0.0 0.0 0.00 0.00 0.00 90 1023.1
20170818010948 83 96 0.0 0.0 0.00 0.00 0.00 89 1023.0
20170818010444 83 96 0.0 0.0 0.00 0.00 0.00 89 1023.1
20170818005943 84 97 0.0 0.0 0.00 0.00 0.00 88 1023.1
20170818005443 84 96 0.0 0.0 0.00 0.00 0.00 88 1023.0
20170818004942 85 96 0.0 0.0 0.00 0.00 0.00 88 1023.0
20170818004443 85 97 0.0 0.0 0.00 0.00 0.00 86 1023.0
20170818003942 86 97 0.0 0.0 0.00 0.00 0.00 84 1022.9
20170818003440 86 97 0.0 0.0 0.00 0.00 0.00 84 1022.8
20170818002939 86 97 0.0 0.0 0.00 0.00 0.00 83 1022.7
20170818002439 87 97 0.0 0.0 0.00 0.00 0.00 83 1022.8
20170818001940 87 96 0.0 0.0 0.00 0.00 0.00 83 1022.8
20170818001440 87 97 0.0 0.0 0.00 0.00 0.00 82 1022.9
20170818000946 87 96 0.0 0.0 0.00 0.00 0.00 81 1022.9
20170818000447 87 97 0.0 0.0 0.00 0.00 0.00 80 1022.8
20170817235945 88 97 0.0 0.0 0.00 0.00 0.00 80 1022.8
20170817235444 88 96 0.0 0.0 0.00 0.00 0.00 81 1022.8
20170817234945 89 96 0.0 0.0 0.00 0.00 0.00 80 1022.8